Regional Weather Roundup
Issued by NWS

Home | Current Version | Previous Version | Graphics & Text | Print | Product List | Glossary On
Versions: 1 2 3 4 5 6 7 8 9 10 11 12 13 14 15 16 17 18 19 20 21 22 23 24 25 26 27 28 29 30 31 32 33 34 35 36 37 38 39 40 41 42 43 44 45 46 47 48 49 50
000
ASUS43 KOAX 292010
RWRNE

WEATHER ROUNDUP FOR NEBRASKA
NATIONAL WEATHER SERVICE OMAHA NE
300 PM CDT TUE JUL 29 2014

NOTES: SATELLITE DATA IS BEING USED TO AUGMENT CLOUD COVER ABOVE
       12000 FEET.
       "FAIR" INDICATES FEW OR NO CLOUDS BELOW 12,000 FEET WITH NO
       SIGNIFICANT WEATHER AND/OR OBSTRUCTIONS TO VISIBILITY.

  * THESE STATIONS DO NOT REPORT WEATHER SUCH AS RAIN...SNOW OR FOG.

NEZ001>004-019>022-054>056-292100-
NEBRASKA PANHANDLE

CITY           SKY/WX    TMP DP  RH WIND       PRES   REMARKS
SCOTTSBLUFF    MOSUNNY   81  62  52 E8        30.20F
ALLIANCE       PTSUNNY   81  57  43 E7        30.20F
CHADRON        PTSUNNY   72  59  63 NE21G26   30.24F
KIMBALL        PTSUNNY   79  52  39 E13       30.21F
SIDNEY         MOSUNNY   83  57  41 E10       30.20F
$$

NEZ057>060-069>072-079>082-292100-
SOUTHWEST NEBRASKA

CITY           SKY/WX    TMP DP  RH WIND       PRES   REMARKS
NORTH PLATTE   MOSUNNY   80  59  48 E12       30.17F
IMPERIAL       MOSUNNY   83  59  44 SE12      30.16F
LEXINGTON      SUNNY     79  59  50 S5G10     30.19F
MCCOOK         MOSUNNY   84  59  42 E13G18    30.15F
OGALLALA       MOSUNNY   80  60  49 E8        30.17F
$$

NEZ005>010-023>029-035>040-094-292100-
NORTH CENTRAL NEBRASKA

CITY           SKY/WX    TMP DP  RH WIND       PRES   REMARKS
VALENTINE      CLOUDY    77  52  41 VRB3      30.22R
AINSWORTH      CLOUDY    74  53  47 NE5       30.22S
BROKEN BOW     PTSUNNY   78  59  51 SE5       30.20F
O`NEILL        CLOUDY    78  48  34 W6        30.21S
ORD            MOSUNNY   77  57  50 SE6       30.19F
THEDFORD       CLOUDY    77  58  52 SE5       30.22S
$$

NEZ041-046>049-061>064-073>077-083>087-292100-
SOUTH CENTRAL NEBRASKA

CITY           SKY/WX    TMP DP  RH WIND       PRES   REMARKS
GRAND ISLAND   PTSUNNY   76  55  48 NE5       30.20F
AURORA         PTSUNNY   77  57  50 CALM      30.20S
HASTINGS       MOSUNNY   77  56  48 VRB5      30.19F
HEBRON         PTSUNNY   78  54  42 N6        30.18F
HOLDREGE       SUNNY     79  56  46 E8        30.18F
KEARNEY *      MOSUNNY   79  55  44 E9        30.19F
YORK           MOSUNNY   75  55  50 N8        30.20F
$$

NEZ011>018-030>034-042>045-292100-
NORTHEAST NEBRASKA

CITY           SKY/WX    TMP DP  RH WIND       PRES   REMARKS
NORFOLK        MOSUNNY   76  52  43 MISG      30.19F
ALBION         CLOUDY    74  54  48 SE5       30.20S
BLAIR          MOSUNNY   74  52  47 NE7       30.18F
COLUMBUS *     PTSUNNY   81  61  50 N3        30.19F
FREMONT        MOSUNNY   78  52  40 N6        30.18F
TEKAMAH        MOSUNNY   79  53  40 N7        30.17F
WAYNE          MOSUNNY   75  54  47 N5        30.20F
$$

NEZ050>053-065>068-078-088>093-292100-
SOUTHEAST NEBRASKA

CITY           SKY/WX    TMP DP  RH WIND       PRES   REMARKS
LINCOLN        PTSUNNY   82  51  34 NE7       30.18F
OMAHA EPPLEY   PTSUNNY   79  52  38 N6        30.17F
BEATRICE       PTSUNNY   79  57  47 CALM      30.17F
FALLS CITY     MOSUNNY   81  56  42 NE5       30.15F
NEBRASKA CITY  PTSUNNY   78  54  43 NE6       30.16F
PLATTSMOUTH    PTSUNNY   79  52  39 N5        30.17F
$$

NEZ044-045-051>053-067-292100-
OMAHA AREA

CITY           SKY/WX    TMP DP  RH WIND       PRES   REMARKS
OMAHA EPPLEY   PTSUNNY   79  52  38 N6        30.17F
BLAIR          MOSUNNY   74  52  47 NE7       30.18F
FREMONT        MOSUNNY   78  52  40 N6        30.18F
MILLARD        PTSUNNY   76  56  48 N5        30.17S
OFFUTT AFB     MOSUNNY   78  55  44 NE7       30.17F
PLATTSMOUTH    PTSUNNY   79  52  39 N5        30.17F
WAHOO          MOCLDY    77  54  45 N7        30.18F
$$


USA.gov is the U.S. government's official web portal to all federal, state and local government web resources and services.